| time (UTC) | temp F | wind direction | speed MPH | gust MPH | rain 1hr in | rain 24hr in | rain mn in | humidity % | barometer mb |
| 20260507062555 | 41 | 33 | 3.0 | 5.0 | 0.00 | 0.00 | 0.00 | 35 | 1022.4 |
| 20260507062048 | 41 | 47 | 3.0 | 5.0 | 0.00 | 0.00 | 0.00 | 35 | 1022.4 |
| 20260507061559 | 41 | 38 | 1.0 | 4.0 | 0.00 | 0.00 | 0.00 | 34 | 1022.4 |
| 20260507061100 | 42 | 18 | 2.0 | 4.0 | 0.00 | 0.00 | 0.00 | 34 | 1022.3 |
| 20260507060502 | 42 | 5 | 3.0 | 4.0 | 0.00 | 0.00 | 0.00 | 34 | 1022.2 |
| 20260507060007 | 43 | 344 | 2.0 | 3.0 | 0.00 | 0.00 | 0.00 | 33 | 1022.2 |
| 20260507055603 | 43 | 306 | 1.0 | 3.0 | 0.00 | 0.00 | 0.00 | 33 | 1022.3 |
| 20260507055005 | 43 | 319 | 2.0 | 5.0 | 0.00 | 0.00 | 0.00 | 33 | 1022.1 |
| 20260507054602 | 44 | 317 | 3.0 | 5.0 | 0.00 | 0.00 | 0.00 | 33 | 1022.1 |
| 20260507054103 | 44 | 323 | 3.0 | 5.0 | 0.00 | 0.00 | 0.00 | 33 | 1022.0 |
| 20260507053505 | 44 | 322 | 2.0 | 4.0 | 0.00 | 0.00 | 0.00 | 32 | 1022.0 |
| 20260507053129 | 45 | 302 | 2.0 | 7.0 | 0.00 | 0.00 | 0.00 | 32 | 1022.0 |
| 20260507052501 | 45 | 303 | 4.0 | 6.0 | 0.00 | 0.00 | 0.00 | 32 | 1022.0 |
| 20260507052056 | 45 | 325 | 4.0 | 6.0 | 0.00 | 0.00 | 0.00 | 32 | 1022.0 |
| 20260507051555 | 45 | 302 | 3.0 | 8.0 | 0.00 | 0.00 | 0.00 | 32 | 1021.8 |
| 20260507051054 | 45 | 300 | 5.0 | 8.0 | 0.00 | 0.00 | 0.00 | 32 | 1021.8 |
| 20260507050547 | 46 | 302 | 5.0 | 8.0 | 0.00 | 0.00 | 0.00 | 31 | 1021.8 |
| 20260507050052 | 46 | 309 | 5.0 | 9.0 | 0.00 | 0.00 | 0.00 | 31 | 1021.7 |
| 20260507045558 | 46 | 303 | 5.0 | 9.0 | 0.00 | 0.00 | 0.00 | 31 | 1021.7 |
| 20260507045004 | 46 | 299 | 6.0 | 9.0 | 0.00 | 0.00 | 0.00 | 31 | 1021.7 |
| 20260507044558 | 47 | 307 | 5.0 | 9.0 | 0.00 | 0.00 | 0.00 | 30 | 1021.6 |
| 20260507044104 | 47 | 319 | 5.0 | 9.0 | 0.00 | 0.00 | 0.00 | 30 | 1021.6 |
| 20260507043555 | 47 | 319 | 4.0 | 8.0 | 0.00 | 0.00 | 0.00 | 30 | 1021.6 |
| 20260507043101 | 47 | 321 | 5.0 | 11.0 | 0.00 | 0.00 | 0.00 | 30 | 1021.6 |
| 20260507042552 | 47 | 300 | 6.0 | 11.0 | 0.00 | 0.00 | 0.00 | 30 | 1021.5 |
| 20260507042043 | 47 | 333 | 6.0 | 10.0 | 0.00 | 0.00 | 0.00 | 30 | 1021.4 |
| 20260507041552 | 47 | 317 | 5.0 | 9.0 | 0.00 | 0.00 | 0.00 | 30 | 1021.4 |
| 20260507041059 | 47 | 321 | 5.0 | 9.0 | 0.00 | 0.00 | 0.00 | 30 | 1021.4 |
| 20260507040605 | 48 | 302 | 4.0 | 9.0 | 0.00 | 0.00 | 0.00 | 29 | 1021.3 |
| 20260507040055 | 48 | 319 | 6.0 | 9.0 | 0.00 | 0.00 | 0.00 | 29 | 1021.3 |
| 20260507035604 | 48 | 313 | 6.0 | 9.0 | 0.00 | 0.00 | 0.00 | 28 | 1021.3 |
| 20260507035004 | 49 | 316 | 6.0 | 11.0 | 0.00 | 0.00 | 0.00 | 28 | 1021.2 |
| 20260507034527 | 49 | 299 | 6.0 | 14.0 | 0.00 | 0.00 | 0.00 | 28 | 1021.1 |
| 20260507034002 | 49 | 315 | 8.0 | 14.0 | 0.00 | 0.00 | 0.00 | 27 | 1021.0 |
| 20260507033511 | 49 | 295 | 9.0 | 14.0 | 0.00 | 0.00 | 0.00 | 27 | 1020.9 |
| 20260507033006 | 49 | 304 | 9.0 | 13.0 | 0.00 | 0.00 | 0.00 | 27 | 1020.8 |
| 20260507032509 | 50 | 317 | 9.0 | 14.0 | 0.00 | 0.00 | 0.00 | 27 | 1020.8 |
| 20260507032102 | 50 | 320 | 9.0 | 14.0 | 0.00 | 0.00 | 0.00 | 26 | 1020.8 |
| 20260507031555 | 50 | 295 | 10.0 | 14.0 | 0.00 | 0.00 | 0.00 | 26 | 1020.8 |
| 20260507031101 | 50 | 321 | 7.0 | 13.0 | 0.00 | 0.00 | 0.00 | 25 | 1020.7 |
| 20260507030551 | 51 | 319 | 8.0 | 14.0 | 0.00 | 0.00 | 0.00 | 25 | 1020.6 |
| 20260507030058 | 51 | 311 | 9.0 | 14.0 | 0.00 | 0.00 | 0.00 | 24 | 1020.6 |
| 20260507025548 | 51 | 326 | 8.0 | 14.0 | 0.00 | 0.00 | 0.00 | 24 | 1020.5 |
| 20260507025039 | 52 | 317 | 9.0 | 15.0 | 0.00 | 0.00 | 0.00 | 23 | 1020.5 |
| 20260507024550 | 52 | 329 | 10.0 | 15.0 | 0.00 | 0.00 | 0.00 | 23 | 1020.5 |
| 20260507024038 | 52 | 329 | 10.0 | 16.0 | 0.00 | 0.00 | 0.00 | 23 | 1020.3 |
| 20260507023543 | 52 | 295 | 11.0 | 16.0 | 0.00 | 0.00 | 0.00 | 22 | 1020.4 |
| 20260507023048 | 52 | 342 | 8.0 | 15.0 | 0.00 | 0.00 | 0.00 | 22 | 1020.3 |
| 20260507022557 | 52 | 271 | 10.0 | 18.0 | 0.00 | 0.00 | 0.00 | 22 | 1020.4 |
| 20260507022047 | 53 | 317 | 10.0 | 20.0 | 0.00 | 0.00 | 0.00 | 22 | 1020.1 |
| 20260507021553 | 53 | 311 | 10.0 | 18.0 | 0.00 | 0.00 | 0.00 | 22 | 1020.0 |
| 20260507021100 | 53 | 322 | 11.0 | 18.0 | 0.00 | 0.00 | 0.00 | 21 | 1019.9 |
| 20260507020502 | 54 | 317 | 11.0 | 17.0 | 0.00 | 0.00 | 0.00 | 21 | 1019.8 |
| 20260507020006 | 54 | 321 | 12.0 | 16.0 | 0.00 | 0.00 | 0.00 | 22 | 1019.9 |
| 20260507015559 | 54 | 310 | 11.0 | 17.0 | 0.00 | 0.00 | 0.00 | 21 | 1019.9 |
| 20260507015004 | 55 | 317 | 11.0 | 17.0 | 0.00 | 0.00 | 0.00 | 22 | 1019.9 |
| 20260507014612 | 55 | 299 | 8.0 | 17.0 | 0.00 | 0.00 | 0.00 | 22 | 1019.8 |
| 20260507014103 | 56 | 315 | 10.0 | 17.0 | 0.00 | 0.00 | 0.00 | 22 | 1019.8 |
| 20260507013505 | 56 | 330 | 8.0 | 16.0 | 0.00 | 0.00 | 0.00 | 22 | 1019.7 |
| 20260507013103 | 56 | 333 | 11.0 | 15.0 | 0.00 | 0.00 | 0.00 | 22 | 1019.6 |
| 20260507012508 | 57 | 321 | 9.0 | 18.0 | 0.00 | 0.00 | 0.00 | 22 | 1019.5 |
| 20260507012100 | 57 | 316 | 10.0 | 18.0 | 0.00 | 0.00 | 0.00 | 22 | 1019.5 |
| 20260507011504 | 57 | 333 | 9.0 | 19.0 | 0.00 | 0.00 | 0.00 | 22 | 1019.3 |
| 20260507011056 | 57 | 340 | 10.0 | 19.0 | 0.00 | 0.00 | 0.00 | 22 | 1019.4 |
| 20260507010547 | 57 | 340 | 12.0 | 20.0 | 0.00 | 0.00 | 0.00 | 21 | 1019.3 |
| 20260507010104 | 57 | 355 | 13.0 | 20.0 | 0.00 | 0.00 | 0.00 | 21 | 1019.2 |
| 20260507005545 | 58 | 325 | 11.0 | 20.0 | 0.00 | 0.00 | 0.00 | 22 | 1019.1 |
| 20260507005053 | 58 | 331 | 13.0 | 20.0 | 0.00 | 0.00 | 0.00 | 21 | 1019.1 |
| 20260507004612 | 58 | 323 | 14.0 | 20.0 | 0.00 | 0.00 | 0.00 | 21 | 1019.0 |
| 20260507004105 | 58 | 342 | 13.0 | 22.0 | 0.00 | 0.00 | 0.00 | 21 | 1018.9 |
| 20260507003555 | 58 | 337 | 14.0 | 22.0 | 0.00 | 0.00 | 0.00 | 22 | 1018.9 |
| 20260507003105 | 58 | 15 | 12.0 | 21.0 | 0.00 | 0.00 | 0.00 | 22 | 1018.9 |
| 20260507002555 | 58 | 319 | 14.0 | 20.0 | 0.00 | 0.00 | 0.00 | 22 | 1019.0 |
| 20260507002101 | 58 | 355 | 13.0 | 21.0 | 0.00 | 0.00 | 0.00 | 21 | 1019.0 |
| 20260507001555 | 58 | 311 | 13.0 | 22.0 | 0.00 | 0.00 | 0.00 | 20 | 1018.9 |
| 20260507001043 | 59 | 307 | 14.0 | 21.0 | 0.00 | 0.00 | 0.00 | 18 | 1018.8 |
| 20260507000550 | 59 | 324 | 11.0 | 24.0 | 0.00 | 0.00 | 0.00 | 21 | 1018.7 |
| 20260507000057 | 59 | 348 | 15.0 | 24.0 | 0.00 | 0.00 | 0.00 | 21 | 1018.6 |
| 20260506235605 | 59 | 294 | 15.0 | 27.0 | 0.00 | 0.00 | 0.00 | 21 | 1018.6 |
| 20260506235054 | 59 | 340 | 16.0 | 27.0 | 0.00 | 0.00 | 0.00 | 22 | 1018.5 |
| 20260506234603 | 59 | 308 | 17.0 | 26.0 | 0.00 | 0.00 | 0.00 | 20 | 1018.4 |
| 20260506234055 | 59 | 340 | 16.0 | 25.0 | 0.00 | 0.00 | 0.00 | 19 | 1018.3 |
| 20260506233600 | 59 | 333 | 14.0 | 26.0 | 0.00 | 0.00 | 0.00 | 22 | 1018.2 |
| 20260506233055 | 59 | 340 | 16.0 | 30.0 | 0.00 | 0.00 | 0.00 | 21 | 1018.2 |
| 20260506232555 | 59 | 349 | 18.0 | 30.0 | 0.00 | 0.00 | 0.00 | 22 | 1018.2 |
| 20260506232102 | 60 | 321 | 14.0 | 25.0 | 0.00 | 0.00 | 0.00 | 23 | 1018.3 |
| 20260506231553 | 59 | 336 | 16.0 | 26.0 | 0.00 | 0.00 | 0.00 | 22 | 1018.2 |
| 20260506231105 | 60 | 303 | 16.0 | 26.0 | 0.00 | 0.00 | 0.00 | 23 | 1018.1 |
| 20260506230552 | 60 | 344 | 17.0 | 25.0 | 0.00 | 0.00 | 0.00 | 24 | 1018.1 |
| 20260506230058 | 60 | 319 | 14.0 | 26.0 | 0.00 | 0.00 | 0.00 | 23 | 1018.1 |
| 20260506225550 | 60 | 15 | 12.0 | 26.0 | 0.00 | 0.00 | 0.00 | 25 | 1018.0 |
| 20260506225039 | 60 | 327 | 16.0 | 27.0 | 0.00 | 0.00 | 0.00 | 25 | 1018.0 |
| 20260506224547 | 60 | 324 | 15.0 | 27.0 | 0.00 | 0.00 | 0.00 | 25 | 1017.9 |
| 20260506224039 | 60 | 360 | 15.0 | 26.0 | 0.00 | 0.00 | 0.00 | 24 | 1017.9 |
| 20260506223545 | 61 | 297 | 13.0 | 26.0 | 0.00 | 0.00 | 0.00 | 21 | 1017.6 |
| 20260506223049 | 61 | 311 | 14.0 | 28.0 | 0.00 | 0.00 | 0.00 | 19 | 1017.8 |
| 20260506222558 | 61 | 313 | 17.0 | 27.0 | 0.00 | 0.00 | 0.00 | 20 | 1017.6 |
| 20260506222047 | 61 | 338 | 15.0 | 24.0 | 0.00 | 0.00 | 0.00 | 24 | 1017.8 |
| 20260506221555 | 60 | 307 | 14.0 | 24.0 | 0.00 | 0.00 | 0.00 | 24 | 1017.7 |
| 20260506221100 | 60 | 311 | 16.0 | 23.0 | 0.00 | 0.00 | 0.00 | 26 | 1017.7 |
| 20260506220502 | 60 | 348 | 15.0 | 23.0 | 0.00 | 0.00 | 0.00 | 26 | 1017.7 |
| 20260506220057 | 60 | 317 | 14.0 | 25.0 | 0.00 | 0.00 | 0.00 | 28 | 1017.7 |
| 20260506215604 | 61 | 308 | 13.0 | 25.0 | 0.00 | 0.00 | 0.00 | 28 | 1017.8 |
| 20260506215054 | 61 | 342 | 14.0 | 26.0 | 0.00 | 0.00 | 0.00 | 26 | 1017.8 |
| 20260506214551 | 60 | 301 | 17.0 | 31.0 | 0.00 | 0.00 | 0.00 | 25 | 1017.7 |
| 20260506214052 | 60 | 327 | 17.0 | 31.0 | 0.00 | 0.00 | 0.00 | 25 | 1017.7 |
| 20260506213558 | 59 | 302 | 12.0 | 23.0 | 0.00 | 0.00 | 0.00 | 26 | 1017.7 |
| 20260506213104 | 59 | 293 | 15.0 | 29.0 | 0.00 | 0.00 | 0.00 | 26 | 1017.8 |
| 20260506212555 | 59 | 296 | 18.0 | 29.0 | 0.00 | 0.00 | 0.00 | 27 | 1017.7 |
| 20260506212046 | 58 | 306 | 16.0 | 26.0 | 0.00 | 0.00 | 0.00 | 30 | 1017.7 |
| 20260506211553 | 57 | 332 | 19.0 | 28.0 | 0.00 | 0.00 | 0.00 | 30 | 1017.8 |
| 20260506211043 | 57 | 320 | 17.0 | 28.0 | 0.00 | 0.00 | 0.00 | 30 | 1017.8 |
| 20260506210532 | 57 | 315 | 14.0 | 24.0 | 0.00 | 0.00 | 0.00 | 30 | 1017.8 |
| 20260506210041 | 57 | 319 | 17.0 | 24.0 | 0.00 | 0.00 | 0.00 | 32 | 1017.8 |
| 20260506205547 | 57 | 311 | 12.0 | 24.0 | 0.00 | 0.00 | 0.00 | 32 | 1017.7 |
| 20260506205058 | 57 | 300 | 15.0 | 24.0 | 0.00 | 0.00 | 0.00 | 34 | 1017.7 |
| 20260506204550 | 57 | 291 | 11.0 | 22.0 | 0.00 | 0.00 | 0.00 | 35 | 1017.8 |
| 20260506204052 | 57 | 296 | 10.0 | 21.0 | 0.00 | 0.00 | 0.00 | 36 | 1017.7 |
| 20260506203546 | 57 | 302 | 14.0 | 21.0 | 0.00 | 0.00 | 0.00 | 35 | 1017.8 |
| 20260506203033 | 57 | 319 | 12.0 | 21.0 | 0.00 | 0.00 | 0.00 | 35 | 1017.8 |
| 20260506202541 | 58 | 306 | 13.0 | 25.0 | 0.00 | 0.00 | 0.00 | 34 | 1017.9 |
| 20260506202047 | 58 | 297 | 10.0 | 23.0 | 0.00 | 0.00 | 0.00 | 34 | 1017.7 |
| 20260506201555 | 57 | 291 | 14.0 | 23.0 | 0.00 | 0.00 | 0.00 | 35 | 1017.7 |
| 20260506201100 | 57 | 330 | 15.0 | 22.0 | 0.00 | 0.00 | 0.00 | 35 | 1017.7 |
| 20260506200504 | 57 | 311 | 15.0 | 23.0 | 0.00 | 0.00 | 0.00 | 35 | 1017.8 |
| 20260506200105 | 58 | 315 | 14.0 | 23.0 | 0.00 | 0.00 | 0.00 | 34 | 1017.8 |
| 20260506195604 | 58 | 285 | 15.0 | 26.0 | 0.00 | 0.00 | 0.00 | 35 | 1017.6 |
| 20260506195057 | 58 | 312 | 17.0 | 26.0 | 0.00 | 0.00 | 0.00 | 33 | 1017.6 |
| 20260506194608 | 58 | 319 | 18.0 | 28.0 | 0.00 | 0.00 | 0.00 | 31 | 1017.6 |
| 20260506194004 | 58 | 322 | 19.0 | 28.0 | 0.00 | 0.00 | 0.00 | 29 | 1017.6 |
| 20260506193559 | 59 | 325 | 16.0 | 28.0 | 0.00 | 0.00 | 0.00 | 31 | 1017.7 |
| 20260506193002 | 59 | 287 | 14.0 | 33.0 | 0.00 | 0.00 | 0.00 | 30 | 1017.6 |
| 20260506192557 | 58 | 339 | 17.0 | 33.0 | 0.00 | 0.00 | 0.00 | 34 | 1017.5 |
| 20260506192051 | 58 | 302 | 15.0 | 26.0 | 0.00 | 0.00 | 0.00 | 33 | 1017.4 |
| 20260506191607 | 58 | 325 | 15.0 | 26.0 | 0.00 | 0.00 | 0.00 | 34 | 1017.6 |
| 20260506191105 | 58 | 333 | 16.0 | 26.0 | 0.00 | 0.00 | 0.00 | 35 | 1017.5 |
| 20260506190505 | 57 | 309 | 13.0 | 24.0 | 0.00 | 0.00 | 0.00 | 39 | 1017.5 |
| 20260506190100 | 55 | 323 | 15.0 | 28.0 | 0.00 | 0.00 | 0.00 | 42 | 1017.7 |
| 20260506185501 | 54 | 310 | 15.0 | 23.0 | 0.00 | 0.00 | 0.00 | 44 | 1017.8 |
| 20260506185058 | 53 | 360 | 14.0 | 23.0 | 0.00 | 0.00 | 0.00 | 46 | 1017.9 |
| 20260506184551 | 51 | 349 | 16.0 | 28.0 | 0.00 | 0.00 | 0.00 | 49 | 1018.0 |
| 20260506184056 | 50 | 320 | 16.0 | 29.0 | 0.00 | 0.00 | 0.00 | 52 | 1018.1 |
| 20260506183602 | 50 | 338 | 17.0 | 29.0 | 0.00 | 0.00 | 0.00 | 52 | 1018.4 |
| 20260506183006 | 50 | 341 | 20.0 | 33.0 | 0.00 | 0.00 | 0.00 | 51 | 1018.6 |
| 20260506182602 | 51 | 316 | 20.0 | 35.0 | 0.00 | 0.00 | 0.00 | 50 | 1018.6 |
| 20260506182002 | 51 | 344 | 21.0 | 36.0 | 0.00 | 0.00 | 0.00 | 50 | 1018.4 |
| 20260506181602 | 51 | 5 | 20.0 | 36.0 | 0.00 | 0.00 | 0.00 | 51 | 1018.5 |
| 20260506181104 | 51 | 338 | 22.0 | 33.0 | 0.00 | 0.00 | 0.00 | 51 | 1018.3 |
| 20260506180507 | 53 | 342 | 18.0 | 35.0 | 0.00 | 0.00 | 0.00 | 50 | 1018.2 |
| 20260506180116 | 54 | 323 | 20.0 | 33.0 | 0.00 | 0.00 | 0.00 | 48 | 1018.1 |
| 20260506175558 | 53 | 319 | 22.0 | 33.0 | 0.00 | 0.00 | 0.00 | 48 | 1017.9 |
| 20260506175045 | 54 | 311 | 21.0 | 34.0 | 0.00 | 0.00 | 0.00 | 48 | 1017.9 |
| 20260506174553 | 54 | 329 | 15.0 | 36.0 | 0.00 | 0.00 | 0.00 | 44 | 1017.8 |
| 20260506174059 | 55 | 306 | 22.0 | 36.0 | 0.00 | 0.00 | 0.00 | 43 | 1017.5 |
| 20260506173502 | 57 | 283 | 14.0 | 29.0 | 0.00 | 0.00 | 0.00 | 36 | 1017.4 |
| 20260506173134 | 58 | 282 | 13.0 | 23.0 | 0.00 | 0.00 | 0.00 | 35 | 1016.9 |
| 20260506172500 | 59 | 279 | 12.0 | 21.0 | 0.00 | 0.00 | 0.00 | 34 | 1017.0 |
| 20260506172056 | 58 | 289 | 11.0 | 21.0 | 0.00 | 0.00 | 0.00 | 35 | 1016.8 |
| 20260506171547 | 57 | 300 | 8.0 | 15.0 | 0.00 | 0.00 | 0.00 | 37 | 1016.9 |
| 20260506171055 | 58 | 273 | 8.0 | 12.0 | 0.00 | 0.00 | 0.00 | 38 | 1016.9 |
| 20260506170548 | 58 | 278 | 5.0 | 14.0 | 0.00 | 0.00 | 0.00 | 37 | 1016.9 |
| 20260506170052 | 58 | 226 | 7.0 | 14.0 | 0.00 | 0.00 | 0.00 | 38 | 1016.8 |
| 20260506165542 | 57 | 236 | 5.0 | 16.0 | 0.00 | 0.00 | 0.00 | 39 | 1016.9 |
| 20260506165033 | 57 | 299 | 11.0 | 18.0 | 0.00 | 0.00 | 0.00 | 40 | 1016.8 |
| 20260506164540 | 56 | 281 | 8.0 | 18.0 | 0.00 | 0.00 | 0.00 | 40 | 1016.8 |
| 20260506164048 | 56 | 334 | 8.0 | 13.0 | 0.00 | 0.00 | 0.00 | 40 | 1016.8 |
| 20260506163555 | 55 | 229 | 8.0 | 19.0 | 0.00 | 0.00 | 0.00 | 41 | 1017.0 |
| 20260506163047 | 55 | 296 | 7.0 | 19.0 | 0.00 | 0.00 | 0.00 | 43 | 1016.9 |
| 20260506162555 | 55 | 242 | 6.0 | 10.0 | 0.00 | 0.00 | 0.00 | 44 | 1017.1 |
| 20260506162059 | 54 | 292 | 4.0 | 9.0 | 0.00 | 0.00 | 0.00 | 45 | 1017.0 |
| 20260506161502 | 54 | 242 | 4.0 | 11.0 | 0.00 | 0.00 | 0.00 | 46 | 1017.1 |
| 20260506161058 | 53 | 242 | 6.0 | 12.0 | 0.00 | 0.00 | 0.00 | 47 | 1017.1 |
| 20260506160502 | 53 | 231 | 8.0 | 13.0 | 0.00 | 0.00 | 0.00 | 46 | 1017.2 |
| 20260506160057 | 53 | 296 | 4.0 | 13.0 | 0.00 | 0.00 | 0.00 | 47 | 1017.2 |
| 20260506155604 | 52 | 257 | 7.0 | 13.0 | 0.00 | 0.00 | 0.00 | 46 | 1017.2 |
| 20260506155055 | 52 | 240 | 7.0 | 13.0 | 0.00 | 0.00 | 0.00 | 46 | 1017.2 |
| 20260506154601 | 51 | 267 | 5.0 | 12.0 | 0.00 | 0.00 | 0.00 | 48 | 1017.1 |
| 20260506154004 | 51 | 259 | 2.0 | 8.0 | 0.00 | 0.00 | 0.00 | 49 | 1017.1 |
| 20260506153601 | 51 | 301 | 1.0 | 8.0 | 0.00 | 0.00 | 0.00 | 49 | 1017.1 |
| 20260506153104 | 51 | 313 | 3.0 | 10.0 | 0.00 | 0.00 | 0.00 | 48 | 1017.1 |
| 20260506152555 | 52 | 286 | 5.0 | 10.0 | 0.00 | 0.00 | 0.00 | 47 | 1017.1 |
| 20260506152045 | 51 | 259 | 1.0 | 8.0 | 0.00 | 0.00 | 0.00 | 49 | 1017.0 |
| 20260506151553 | 52 | 290 | 2.0 | 6.0 | 0.00 | 0.00 | 0.00 | 48 | 1016.9 |
| 20260506151059 | 52 | 252 | 3.0 | 6.0 | 0.00 | 0.00 | 0.00 | 48 | 1016.8 |
| 20260506150502 | 52 | 250 | 2.0 | 7.0 | 0.00 | 0.00 | 0.00 | 48 | 1016.9 |
| 20260506150100 | 52 | 205 | 2.0 | 7.0 | 0.00 | 0.00 | 0.00 | 48 | 1016.7 |
| 20260506145500 | 52 | 284 | 1.0 | 5.0 | 0.00 | 0.00 | 0.00 | 49 | 1016.8 |
| 20260506145056 | 52 | 200 | 2.0 | 5.0 | 0.00 | 0.00 | 0.00 | 50 | 1016.9 |
| 20260506144609 | 51 | 211 | 3.0 | 5.0 | 0.00 | 0.00 | 0.00 | 52 | 1016.9 |
| 20260506144053 | 50 | 208 | 2.0 | 4.0 | 0.00 | 0.00 | 0.00 | 52 | 1016.9 |
| 20260506143543 | 49 | 235 | 1.0 | 4.0 | 0.00 | 0.00 | 0.00 | 54 | 1016.9 |
| 20260506143052 | 49 | 147 | 1.0 | 4.0 | 0.00 | 0.00 | 0.00 | 56 | 1016.8 |
| 20260506142557 | 48 | 161 | 2.0 | 4.0 | 0.00 | 0.00 | 0.00 | 57 | 1016.8 |
| 20260506142106 | 47 | 134 | 2.0 | 6.0 | 0.00 | 0.00 | 0.00 | 58 | 1016.8 |
| 20260506141506 | 47 | 163 | 3.0 | 7.0 | 0.00 | 0.00 | 0.00 | 59 | 1016.8 |
| 20260506141014 | 46 | 119 | 3.0 | 7.0 | 0.00 | 0.00 | 0.00 | 61 | 1016.8 |
| 20260506140520 | 46 | 154 | 5.0 | 7.0 | 0.00 | 0.00 | 0.00 | 62 | 1016.9 |
| 20260506140059 | 46 | 196 | 4.0 | 7.0 | 0.00 | 0.00 | 0.00 | 62 | 1016.9 |
| 20260506135501 | 46 | 127 | 4.0 | 7.0 | 0.00 | 0.00 | 0.00 | 62 | 1016.9 |
| 20260506135012 | 45 | 117 | 2.0 | 8.0 | 0.00 | 0.00 | 0.00 | 64 | 1016.7 |
| 20260506134515 | 45 | 117 | 3.0 | 7.0 | 0.00 | 0.00 | 0.00 | 65 | 1016.6 |
| 20260506134004 | 44 | 131 | 3.0 | 6.0 | 0.00 | 0.00 | 0.00 | 66 | 1016.7 |
| 20260506133512 | 44 | 131 | 3.0 | 6.0 | 0.00 | 0.00 | 0.00 | 68 | 1016.7 |
| 20260506133002 | 43 | 119 | 2.0 | 6.0 | 0.00 | 0.00 | 0.00 | 69 | 1016.6 |
| 20260506132557 | 43 | 127 | 2.0 | 6.0 | 0.00 | 0.00 | 0.00 | 70 | 1016.6 |
| 20260506132001 | 43 | 113 | 3.0 | 6.0 | 0.00 | 0.00 | 0.00 | 70 | 1016.4 |
| 20260506131558 | 43 | 112 | 2.0 | 4.0 | 0.00 | 0.00 | 0.00 | 71 | 1016.5 |
| 20260506131103 | 43 | 110 | 2.0 | 3.0 | 0.00 | 0.00 | 0.00 | 71 | 1016.5 |
| 20260506130506 | 42 | 119 | 1.0 | 3.0 | 0.00 | 0.00 | 0.00 | 72 | 1016.3 |
| 20260506130017 | 42 | 113 | 2.0 | 3.0 | 0.00 | 0.00 | 0.00 | 72 | 1016.3 |
| 20260506125504 | 42 | 119 | 2.0 | 3.0 | 0.00 | 0.00 | 0.00 | 72 | 1016.2 |
| 20260506125011 | 42 | 119 | 1.0 | 3.0 | 0.00 | 0.00 | 0.00 | 73 | 1016.2 |
| 20260506124501 | 42 | 119 | 1.0 | 3.0 | 0.00 | 0.00 | 0.00 | 73 | 1016.2 |
| 20260506124007 | 41 | 116 | 1.0 | 3.0 | 0.00 | 0.00 | 0.00 | 73 | 1016.1 |
| 20260506123601 | 41 | 102 | 1.0 | 3.0 | 0.00 | 0.00 | 0.00 | 73 | 1016.1 |
| 20260506123052 | 41 | 126 | 1.0 | 2.0 | 0.00 | 0.00 | 0.00 | 74 | 1016.0 |
| 20260506122600 | 41 | 126 | 1.0 | 3.0 | 0.00 | 0.00 | 0.00 | 74 | 1015.9 |
| 20260506122050 | 41 | 126 | 1.0 | 3.0 | 0.00 | 0.00 | 0.00 | 74 | 1015.9 |
| 20260506121539 | 41 | 109 | 2.0 | 3.0 | 0.00 | 0.00 | 0.00 | 74 | 1015.9 |
| 20260506121046 | 41 | 109 | 1.0 | 2.0 | 0.00 | 0.00 | 0.00 | 74 | 1015.8 |
| 20260506120552 | 41 | 109 | 1.0 | 2.0 | 0.00 | 0.00 | 0.00 | 73 | 1015.8 |
| 20260506120115 | 41 | 109 | 0.0 | 2.0 | 0.00 | 0.00 | 0.00 | 73 | 1015.8 |
| 20260506115553 | 41 | 109 | 0.0 | 0.0 | 0.00 | 0.00 | 0.00 | 73 | 1015.9 |
| 20260506115059 | 41 | 109 | 0.0 | 0.0 | 0.00 | 0.00 | 0.00 | 73 | 1015.8 |
| 20260506114549 | 41 | 109 | 0.0 | 2.0 | 0.00 | 0.00 | 0.00 | 74 | 1015.8 |
| 20260506114038 | 40 | 109 | 0.0 | 2.0 | 0.00 | 0.00 | 0.00 | 74 | 1015.8 |
| 20260506113545 | 40 | 109 | 0.0 | 2.0 | 0.00 | 0.00 | 0.00 | 75 | 1015.8 |
| 20260506113036 | 40 | 109 | 1.0 | 2.0 | 0.00 | 0.00 | 0.00 | 75 | 1015.8 |
| 20260506112540 | 40 | 109 | 1.0 | 2.0 | 0.00 | 0.00 | 0.00 | 75 | 1015.7 |
| 20260506112046 | 40 | 109 | 2.0 | 2.0 | 0.00 | 0.00 | 0.00 | 74 | 1015.7 |
| 20260506111538 | 40 | 109 | 1.0 | 2.0 | 0.00 | 0.00 | 0.00 | 74 | 1015.6 |
| 20260506111048 | 40 | 109 | 1.0 | 3.0 | 0.00 | 0.00 | 0.00 | 74 | 1015.5 |
| 20260506110551 | 40 | 109 | 2.0 | 3.0 | 0.00 | 0.00 | 0.00 | 74 | 1015.4 |
| 20260506110100 | 40 | 109 | 2.0 | 3.0 | 0.00 | 0.00 | 0.00 | 74 | 1015.4 |
| 20260506105551 | 40 | 109 | 2.0 | 3.0 | 0.00 | 0.00 | 0.00 | 74 | 1015.4 |
| 20260506105102 | 40 | 109 | 2.0 | 3.0 | 0.00 | 0.00 | 0.00 | 72 | 1015.4 |
| 20260506104604 | 40 | 111 | 2.0 | 3.0 | 0.00 | 0.00 | 0.00 | 72 | 1015.3 |
| 20260506104014 | 41 | 126 | 2.0 | 3.0 | 0.00 | 0.00 | 0.00 | 72 | 1015.4 |
| 20260506103604 | 41 | 126 | 1.0 | 4.0 | 0.00 | 0.00 | 0.00 | 73 | 1015.3 |
| 20260506103006 | 41 | 126 | 2.0 | 4.0 | 0.00 | 0.00 | 0.00 | 73 | 1015.3 |
| 20260506102602 | 41 | 129 | 2.0 | 4.0 | 0.00 | 0.00 | 0.00 | 73 | 1015.3 |
| 20260506102006 | 41 | 132 | 2.0 | 4.0 | 0.00 | 0.00 | 0.00 | 73 | 1015.3 |
| 20260506101601 | 41 | 131 | 2.0 | 4.0 | 0.00 | 0.00 | 0.00 | 73 | 1015.3 |
| 20260506101002 | 41 | 111 | 2.0 | 4.0 | 0.00 | 0.00 | 0.00 | 73 | 1015.3 |
| 20260506100513 | 41 | 109 | 2.0 | 3.0 | 0.00 | 0.00 | 0.00 | 73 | 1015.3 |
| 20260506100105 | 41 | 112 | 2.0 | 4.0 | 0.00 | 0.00 | 0.00 | 73 | 1015.3 |
| 20260506095503 | 41 | 115 | 3.0 | 4.0 | 0.00 | 0.00 | 0.00 | 73 | 1015.2 |
| 20260506095057 | 41 | 126 | 2.0 | 4.0 | 0.00 | 0.00 | 0.00 | 72 | 1015.3 |
| 20260506094615 | 41 | 110 | 2.0 | 3.0 | 0.00 | 0.00 | 0.00 | 72 | 1015.4 |
| 20260506094100 | 42 | 134 | 2.0 | 3.0 | 0.00 | 0.00 | 0.00 | 72 | 1015.3 |
| 20260506093602 | 42 | 129 | 1.0 | 2.0 | 0.00 | 0.00 | 0.00 | 71 | 1015.3 |
| 20260506093004 | 42 | 159 | 0.0 | 2.0 | 0.00 | 0.00 | 0.00 | 70 | 1015.3 |
| 20260506092559 | 42 | 159 | 1.0 | 2.0 | 0.00 | 0.00 | 0.00 | 70 | 1015.4 |
| 20260506092105 | 42 | 159 | 1.0 | 2.0 | 0.00 | 0.00 | 0.00 | 70 | 1015.3 |
| 20260506091556 | 43 | 159 | 0.0 | 2.0 | 0.00 | 0.00 | 0.00 | 69 | 1015.4 |
| 20260506091048 | 43 | 159 | 1.0 | 2.0 | 0.00 | 0.00 | 0.00 | 69 | 1015.3 |
| 20260506090554 | 43 | 159 | 1.0 | 2.0 | 0.00 | 0.00 | 0.00 | 69 | 1015.4 |
| 20260506085503 | 43 | 155 | 2.0 | 3.0 | 0.00 | 0.00 | 0.00 | 67 | 1015.4 |
| 20260506085102 | 44 | 144 | 2.0 | 3.0 | 0.00 | 0.00 | 0.00 | 67 | 1015.4 |
| 20260506084605 | 44 | 161 | 2.0 | 3.0 | 0.00 | 0.00 | 0.00 | 66 | 1015.3 |
| 20260506084056 | 44 | 167 | 1.0 | 3.0 | 0.00 | 0.00 | 0.00 | 66 | 1015.3 |
| 20260506083550 | 44 | 153 | 2.0 | 3.0 | 0.00 | 0.00 | 0.00 | 65 | 1015.3 |
| 20260506083100 | 44 | 153 | 1.0 | 3.0 | 0.00 | 0.00 | 0.00 | 65 | 1015.3 |
| 20260506082602 | 45 | 153 | 2.0 | 3.0 | 0.00 | 0.00 | 0.00 | 65 | 1015.3 |
| 20260506082103 | 45 | 149 | 1.0 | 3.0 | 0.00 | 0.00 | 0.00 | 64 | 1015.4 |
| 20260506081554 | 45 | 153 | 1.0 | 2.0 | 0.00 | 0.00 | 0.00 | 64 | 1015.4 |
| 20260506081046 | 45 | 153 | 1.0 | 2.0 | 0.00 | 0.00 | 0.00 | 63 | 1015.4 |
| 20260506080552 | 45 | 157 | 1.0 | 3.0 | 0.00 | 0.00 | 0.00 | 63 | 1015.4 |
| 20260506080109 | 45 | 164 | 1.0 | 3.0 | 0.00 | 0.00 | 0.00 | 63 | 1015.5 |
| 20260506073103 | 46 | 207 | 4.0 | 6.0 | 0.00 | 0.00 | 0.00 | 61 | 1015.6 |
| 20260506072557 | 46 | 190 | 3.0 | 6.0 | 0.00 | 0.00 | 0.00 | 61 | 1015.7 |
| 20260506072104 | 46 | 183 | 2.0 | 6.0 | 0.00 | 0.00 | 0.00 | 61 | 1015.7 |
| 20260506071505 | 46 | 195 | 4.0 | 6.0 | 0.00 | 0.00 | 0.00 | 61 | 1015.6 |
| 20260506071009 | 47 | 192 | 3.0 | 6.0 | 0.00 | 0.00 | 0.00 | 61 | 1015.6 |
| 20260506070516 | 47 | 199 | 1.0 | 4.0 | 0.00 | 0.00 | 0.00 | 60 | 1015.6 |